Time,TemperatureF,DewpointF,PressureIn,WindDirection,WindDirectionDegrees,WindSpeedMPH,WindSpeedGustMPH,Humidity,HourlyPrecipIn,Conditions,Clouds,dailyrainin,SoftwareType,DateUTC
2013-03-30 00:00:00,63.3,16.4,30.00,NNE,28,2.0,3.0,16,0.00,,,0.00,VWS V14.01,2013-03-30 07:00:00,
2013-03-30 00:05:00,63.3,14.9,30.00,NNE,28,2.0,4.0,15,0.00,,,0.00,VWS V14.01,2013-03-30 07:05:00,
2013-03-30 00:10:00,63.4,15.0,30.00,NNE,28,2.0,3.0,15,0.00,,,0.00,VWS V14.01,2013-03-30 07:10:00,
2013-03-30 00:15:00,63.5,15.1,30.00,NNE,28,2.0,3.0,15,0.00,,,0.00,VWS V14.01,2013-03-30 07:15:00,
2013-03-30 00:20:00,63.6,15.1,29.99,NNE,28,2.0,3.0,15,0.00,,,0.00,VWS V14.01,2013-03-30 07:20:00,
2013-03-30 00:25:00,63.6,15.1,29.99,NNE,28,2.0,3.0,15,0.00,,,0.00,VWS V14.01,2013-03-30 07:25:00,
2013-03-30 00:30:00,63.7,15.2,29.99,NNE,28,2.0,2.0,15,0.00,,,0.00,VWS V14.01,2013-03-30 07:30:00,
2013-03-30 00:35:00,63.7,15.2,29.99,NNE,28,0.0,1.0,15,0.00,,,0.00,VWS V14.01,2013-03-30 07:35:00,
2013-03-30 00:40:00,63.2,16.3,29.99,NNE,28,0.0,1.0,16,0.00,,,0.00,VWS V14.01,2013-03-30 07:40:00,
2013-03-30 00:45:00,62.5,18.5,29.99,NNE,28,0.0,2.0,18,0.00,,,0.00,VWS V14.01,2013-03-30 07:45:00,
2013-03-30 00:50:00,61.8,17.9,29.99,NNE,28,4.0,5.0,18,0.00,,,0.00,VWS V14.01,2013-03-30 07:50:00,
2013-03-30 00:55:00,60.7,18.2,29.99,NNE,28,3.0,4.0,19,0.00,,,0.00,VWS V14.01,2013-03-30 07:55:00,
2013-03-30 01:00:00,59.9,18.8,30.00,NNE,28,4.0,4.0,20,0.00,,,0.00,VWS V14.01,2013-03-30 08:00:00,
2013-03-30 01:05:00,59.1,18.1,30.00,NNE,28,0.0,1.0,20,0.00,,,0.00,VWS V14.01,2013-03-30 08:05:00,
2013-03-30 01:10:00,58.7,20.0,30.00,NNE,28,4.0,4.0,22,0.00,,,0.00,VWS V14.01,2013-03-30 08:10:00,
2013-03-30 01:15:00,57.9,20.4,29.99,NNE,28,2.0,5.0,23,0.00,,,0.00,VWS V14.01,2013-03-30 08:15:00,
2013-03-30 01:20:00,57.3,20.8,29.99,NNE,28,2.0,5.0,24,0.00,,,0.00,VWS V14.01,2013-03-30 08:20:00,
2013-03-30 01:25:00,57.0,20.6,29.99,NNE,28,3.0,4.0,24,0.00,,,0.00,VWS V14.01,2013-03-30 08:25:00,
2013-03-30 01:30:00,57.0,20.6,29.99,NNE,28,1.0,2.0,24,0.00,,,0.00,VWS V14.01,2013-03-30 08:30:00,
2013-03-30 01:35:00,56.9,21.5,29.99,NNE,28,1.0,3.0,25,0.00,,,0.00,VWS V14.01,2013-03-30 08:35:00,
2013-03-30 01:40:00,56.5,21.1,29.99,NNE,28,0.0,2.0,25,0.00,,,0.00,VWS V14.01,2013-03-30 08:40:00,
2013-03-30 01:45:00,56.3,21.0,29.99,NNE,28,1.0,4.0,25,0.00,,,0.00,VWS V14.01,2013-03-30 08:45:00,
2013-03-30 01:50:00,56.2,20.9,29.99,NNE,28,0.0,4.0,25,0.00,,,0.00,VWS V14.01,2013-03-30 08:50:00,
2013-03-30 01:55:00,56.0,21.6,29.99,NNE,28,2.0,3.0,26,0.00,,,0.00,VWS V14.01,2013-03-30 08:55:00,
2013-03-30 02:00:00,55.8,21.5,29.99,NNE,28,0.0,2.0,26,0.00,,,0.00,VWS V14.01,2013-03-30 09:00:00,
2013-03-30 02:05:00,55.6,21.3,29.99,NNE,28,1.0,3.0,26,0.00,,,0.00,VWS V14.01,2013-03-30 09:05:00,
2013-03-30 02:10:00,55.4,22.0,29.99,NNE,28,0.0,1.0,27,0.00,,,0.00,VWS V14.01,2013-03-30 09:10:00,
2013-03-30 02:15:00,55.2,20.9,29.99,NNE,28,2.0,3.0,26,0.00,,,0.00,VWS V14.01,2013-03-30 09:15:00,
2013-03-30 02:20:00,55.1,20.9,29.99,NNE,28,0.0,3.0,26,0.00,,,0.00,VWS V14.01,2013-03-30 09:20:00,
2013-03-30 02:25:00,55.0,20.8,29.99,NNE,28,0.0,1.0,26,0.00,,,0.00,VWS V14.01,2013-03-30 09:25:00,
2013-03-30 02:30:00,54.9,21.6,29.99,NNE,28,2.0,2.0,27,0.00,,,0.00,VWS V14.01,2013-03-30 09:30:00,
2013-03-30 02:35:00,54.9,21.6,29.98,NNE,28,1.0,3.0,27,0.00,,,0.00,VWS V14.01,2013-03-30 09:35:00,
2013-03-30 02:40:00,55.1,21.7,29.99,NNE,28,2.0,3.0,27,0.00,,,0.00,VWS V14.01,2013-03-30 09:40:00,
2013-03-30 02:45:00,55.2,21.8,29.99,NNE,28,2.0,3.0,27,0.00,,,0.00,VWS V14.01,2013-03-30 09:45:00,
2013-03-30 02:50:00,55.4,21.1,29.98,NNE,28,2.0,4.0,26,0.00,,,0.00,VWS V14.01,2013-03-30 09:50:00,
2013-03-30 02:55:00,55.8,21.5,29.98,NNE,28,3.0,4.0,26,0.00,,,0.00,VWS V14.01,2013-03-30 09:55:00,
2013-03-30 03:00:00,56.1,22.6,29.97,NNE,28,3.0,5.0,27,0.00,,,0.00,VWS V14.01,2013-03-30 10:00:00,
2013-03-30 03:05:00,56.2,22.7,29.97,NNE,28,4.0,5.0,27,0.00,,,0.00,VWS V14.01,2013-03-30 10:05:00,
2013-03-30 03:10:00,56.1,22.6,29.97,NNE,28,2.0,6.0,27,0.00,,,0.00,VWS V14.01,2013-03-30 10:10:00,
2013-03-30 03:15:00,56.2,21.8,29.98,NNE,28,0.0,5.0,26,0.00,,,0.00,VWS V14.01,2013-03-30 10:15:00,
2013-03-30 03:20:00,56.3,21.9,29.98,NNE,28,2.0,4.0,26,0.00,,,0.00,VWS V14.01,2013-03-30 10:20:00,
2013-03-30 03:25:00,56.6,21.2,29.97,NNE,28,2.0,5.0,25,0.00,,,0.00,VWS V14.01,2013-03-30 10:25:00,
2013-03-30 03:30:00,57.3,20.8,29.97,NNE,28,3.0,5.0,24,0.00,,,0.00,VWS V14.01,2013-03-30 10:30:00,
2013-03-30 03:35:00,57.9,20.4,29.97,NNE,28,2.0,5.0,23,0.00,,,0.00,VWS V14.01,2013-03-30 10:35:00,
2013-03-30 03:40:00,58.3,20.7,29.97,NNE,28,1.0,5.0,23,0.00,,,0.00,VWS V14.01,2013-03-30 10:40:00,
2013-03-30 03:45:00,58.6,20.9,29.97,NNE,28,3.0,5.0,23,0.00,,,0.00,VWS V14.01,2013-03-30 10:45:00,
2013-03-30 03:50:00,58.6,20.9,29.97,NNE,28,0.0,2.0,23,0.00,,,0.00,VWS V14.01,2013-03-30 10:50:00,
2013-03-30 03:55:00,58.6,20.9,29.97,NNE,28,2.0,2.0,23,0.00,,,0.00,VWS V14.01,2013-03-30 10:55:00,
2013-03-30 04:00:00,58.6,20.9,29.97,NNE,28,1.0,2.0,23,0.00,,,0.00,VWS V14.01,2013-03-30 11:00:00,
2013-03-30 04:05:00,58.6,20.9,29.97,NNE,28,0.0,3.0,23,0.00,,,0.00,VWS V14.01,2013-03-30 11:05:00,
2013-03-30 04:10:00,58.7,20.0,29.96,NNE,28,2.0,4.0,22,0.00,,,0.00,VWS V14.01,2013-03-30 11:10:00,
2013-03-30 04:15:00,58.9,21.2,29.97,NNE,28,2.0,3.0,23,0.00,,,0.00,VWS V14.01,2013-03-30 11:15:00,
2013-03-30 04:20:00,59.0,21.3,29.97,NNE,28,0.0,3.0,23,0.00,,,0.00,VWS V14.01,2013-03-30 11:20:00,
2013-03-30 04:25:00,58.8,22.1,29.97,NNE,28,0.0,0.0,24,0.00,,,0.00,VWS V14.01,2013-03-30 11:25:00,
2013-03-30 04:30:00,58.4,21.8,29.96,NNE,28,0.0,0.0,24,0.00,,,0.00,VWS V14.01,2013-03-30 11:30:00,
2013-03-30 04:35:00,58.1,22.5,29.96,NNE,28,0.0,0.0,25,0.00,,,0.00,VWS V14.01,2013-03-30 11:35:00,
2013-03-30 04:40:00,57.9,22.3,29.96,NNE,28,0.0,1.0,25,0.00,,,0.00,VWS V14.01,2013-03-30 11:40:00,
2013-03-30 04:45:00,57.9,23.2,29.96,NNE,28,1.0,2.0,26,0.00,,,0.00,VWS V14.01,2013-03-30 11:45:00,
2013-03-30 04:50:00,57.7,23.1,29.97,NNE,28,1.0,3.0,26,0.00,,,0.00,VWS V14.01,2013-03-30 11:50:00,
2013-03-30 04:55:00,57.3,22.7,29.97,NNE,28,2.0,3.0,26,0.00,,,0.00,VWS V14.01,2013-03-30 11:55:00,
2013-03-30 05:00:00,57.2,23.5,29.97,NNE,28,1.0,3.0,27,0.00,,,0.00,VWS V14.01,2013-03-30 12:00:00,
2013-03-30 05:05:00,57.0,23.4,29.97,NNE,28,2.0,3.0,27,0.00,,,0.00,VWS V14.01,2013-03-30 12:05:00,
2013-03-30 05:10:00,57.1,23.5,29.97,NNE,28,2.0,5.0,27,0.00,,,0.00,VWS V14.01,2013-03-30 12:10:00,
2013-03-30 05:15:00,57.1,23.5,29.97,NNE,28,1.0,2.0,27,0.00,,,0.00,VWS V14.01,2013-03-30 12:15:00,
2013-03-30 05:20:00,56.9,24.1,29.97,NNE,28,0.0,2.0,28,0.00,,,0.00,VWS V14.01,2013-03-30 12:20:00,
2013-03-30 05:25:00,56.8,24.1,29.96,NNE,28,0.0,3.0,28,0.00,,,0.00,VWS V14.01,2013-03-30 12:25:00,
2013-03-30 05:30:00,56.5,23.8,29.97,NNE,28,0.0,1.0,28,0.00,,,0.00,VWS V14.01,2013-03-30 12:30:00,
2013-03-30 05:35:00,56.4,23.7,29.97,NNE,28,1.0,2.0,28,0.00,,,0.00,VWS V14.01,2013-03-30 12:35:00,
2013-03-30 05:40:00,56.3,23.6,29.97,NNE,28,0.0,2.0,28,0.00,,,0.00,VWS V14.01,2013-03-30 12:40:00,
2013-03-30 05:45:00,56.1,24.3,29.98,NNE,28,1.0,1.0,29,0.00,,,0.00,VWS V14.01,2013-03-30 12:45:00,
2013-03-30 05:51:00,56.0,24.2,29.98,NNE,28,0.0,2.0,29,0.00,,,0.00,VWS V14.01,2013-03-30 12:51:00,
2013-03-30 05:56:00,56.1,23.5,29.98,NNE,28,2.0,2.0,28,0.00,,,0.00,VWS V14.01,2013-03-30 12:56:00,
2013-03-30 06:01:00,56.2,22.7,29.97,NNE,28,1.0,3.0,27,0.00,,,0.00,VWS V14.01,2013-03-30 13:01:00,
2013-03-30 06:06:00,56.5,22.9,29.98,NNE,28,0.0,2.0,27,0.00,,,0.00,VWS V14.01,2013-03-30 13:06:00,
2013-03-30 06:11:00,56.7,23.1,29.97,NNE,28,0.0,1.0,27,0.00,,,0.00,VWS V14.01,2013-03-30 13:11:00,
2013-03-30 06:16:00,56.9,23.3,29.98,NNE,28,0.0,1.0,27,0.00,,,0.00,VWS V14.01,2013-03-30 13:16:00,
2013-03-30 06:21:00,56.9,24.1,29.98,NNE,28,0.0,3.0,28,0.00,,,0.00,VWS V14.01,2013-03-30 13:21:00,
2013-03-30 06:26:00,56.5,24.6,29.98,NNE,28,0.0,1.0,29,0.00,,,0.00,VWS V14.01,2013-03-30 13:26:00,
2013-03-30 06:31:00,56.3,23.6,29.97,NNE,28,3.0,4.0,28,0.00,,,0.00,VWS V14.01,2013-03-30 13:31:00,
2013-03-30 06:36:00,56.3,24.5,29.97,NNE,28,3.0,3.0,29,0.00,,,0.00,VWS V14.01,2013-03-30 13:36:00,
2013-03-30 06:41:00,56.3,24.5,29.97,NNE,28,1.0,3.0,29,0.00,,,0.00,VWS V14.01,2013-03-30 13:41:00,
2013-03-30 06:46:00,56.1,25.1,29.97,NNE,28,1.0,3.0,30,0.00,,,0.00,VWS V14.01,2013-03-30 13:46:00,
2013-03-30 06:51:00,56.0,25.0,29.97,NNE,28,2.0,4.0,30,0.00,,,0.00,VWS V14.01,2013-03-30 13:51:00,
2013-03-30 06:56:00,56.3,23.6,29.97,NNE,28,3.0,4.0,28,0.00,,,0.00,VWS V14.01,2013-03-30 13:56:00,
2013-03-30 07:06:00,57.5,24.7,29.97,NNE,28,2.0,3.0,28,0.00,,,0.00,VWS V14.01,2013-03-30 14:06:00,
2013-03-30 07:11:00,57.9,25.9,29.97,NNE,28,1.0,1.0,29,0.00,,,0.00,VWS V14.01,2013-03-30 14:11:00,
2013-03-30 07:16:00,58.2,24.4,29.97,NNE,28,3.0,4.0,27,0.00,,,0.00,VWS V14.01,2013-03-30 14:16:00,
2013-03-30 07:26:00,59.3,24.4,29.98,NNE,28,3.0,4.0,26,0.00,,,0.00,VWS V14.01,2013-03-30 14:26:00,
2013-03-30 07:31:00,59.9,24.0,29.98,NNE,28,3.0,6.0,25,0.00,,,0.00,VWS V14.01,2013-03-30 14:31:00,
2013-03-30 07:36:00,60.7,24.7,29.98,NNE,28,4.0,5.0,25,0.00,,,0.00,VWS V14.01,2013-03-30 14:36:00,
2013-03-30 07:41:00,61.5,24.4,29.97,NNE,28,3.0,4.0,24,0.00,,,0.00,VWS V14.01,2013-03-30 14:41:00,
2013-03-30 07:47:00,62.3,24.1,29.98,NNE,28,1.0,5.0,23,0.00,,,0.00,VWS V14.01,2013-03-30 14:47:00,
2013-03-30 07:52:00,63.3,23.8,29.98,NNE,28,0.0,3.0,22,0.00,,,0.00,VWS V14.01,2013-03-30 14:52:00,
2013-03-30 07:57:00,64.3,24.7,29.98,NNE,28,3.0,3.0,22,0.00,,,0.00,VWS V14.01,2013-03-30 14:57:00,
2013-03-30 08:02:00,65.4,24.5,29.98,NNE,28,3.0,3.0,21,0.00,,,0.00,VWS V14.01,2013-03-30 15:02:00,
2013-03-30 08:07:00,66.7,23.2,29.98,NNE,28,3.0,5.0,19,0.00,,,0.00,VWS V14.01,2013-03-30 15:07:00,
2013-03-30 08:12:00,67.6,22.6,29.98,NNE,28,0.0,1.0,18,0.00,,,0.00,VWS V14.01,2013-03-30 15:12:00,
2013-03-30 08:21:00,68.5,25.9,29.98,NNE,28,0.0,0.0,20,0.00,,,0.00,VWS V14.01,2013-03-30 15:21:00,
2013-03-30 08:27:00,68.7,27.2,29.98,NNE,28,2.0,4.0,21,0.00,,,0.00,VWS V14.01,2013-03-30 15:27:00,
2013-03-30 08:32:00,68.5,28.2,29.99,NNE,28,0.0,1.0,22,0.00,,,0.00,VWS V14.01,2013-03-30 15:32:00,
2013-03-30 08:37:00,68.2,26.8,29.98,NNE,28,0.0,2.0,21,0.00,,,0.00,VWS V14.01,2013-03-30 15:37:00,
2013-03-30 08:42:00,67.9,25.4,29.98,NNE,28,0.0,3.0,20,0.00,,,0.00,VWS V14.01,2013-03-30 15:42:00,
2013-03-30 08:47:00,68.0,25.5,29.99,NNE,28,1.0,2.0,20,0.00,,,0.00,VWS V14.01,2013-03-30 15:47:00,
2013-03-30 08:52:00,68.0,25.5,29.99,NNE,28,1.0,3.0,20,0.00,,,0.00,VWS V14.01,2013-03-30 15:52:00,
2013-03-30 08:57:00,68.3,21.8,29.99,NNE,28,0.0,1.0,17,0.00,,,0.00,VWS V14.01,2013-03-30 15:57:00,
2013-03-30 09:02:00,68.5,23.4,29.98,NNE,28,0.0,1.0,18,0.00,,,0.00,VWS V14.01,2013-03-30 16:02:00,
2013-03-30 09:07:00,68.9,20.9,29.98,NNE,28,4.0,4.0,16,0.00,,,0.00,VWS V14.01,2013-03-30 16:07:00,
2013-03-30 09:12:00,69.4,21.3,29.99,NNE,28,0.0,3.0,16,0.00,,,0.00,VWS V14.01,2013-03-30 16:12:00,
2013-03-30 09:17:00,69.7,21.5,29.99,NNE,28,0.0,2.0,16,0.00,,,0.00,VWS V14.01,2013-03-30 16:17:00,
2013-03-30 09:22:00,70.3,22.0,29.99,NNE,28,0.0,1.0,16,0.00,,,0.00,VWS V14.01,2013-03-30 16:22:00,
2013-03-30 09:27:00,70.5,22.2,29.99,NNE,28,2.0,2.0,16,0.00,,,0.00,VWS V14.01,2013-03-30 16:27:00,
2013-03-30 09:32:00,70.6,22.3,29.98,NNE,28,0.0,1.0,16,0.00,,,0.00,VWS V14.01,2013-03-30 16:32:00,
2013-03-30 09:37:00,70.7,20.8,29.98,NNE,28,0.0,0.0,15,0.00,,,0.00,VWS V14.01,2013-03-30 16:37:00,
2013-03-30 09:42:00,71.3,21.3,29.98,NNE,28,0.0,2.0,15,0.00,,,0.00,VWS V14.01,2013-03-30 16:42:00,
2013-03-30 09:47:00,71.6,21.5,29.99,NNE,28,0.0,3.0,15,0.00,,,0.00,VWS V14.01,2013-03-30 16:47:00,
2013-03-30 09:52:00,71.6,21.5,29.99,NNE,28,3.0,3.0,15,0.00,,,0.00,VWS V14.01,2013-03-30 16:52:00,
2013-03-30 09:57:00,71.6,21.5,29.99,NNE,33,1.0,4.0,15,0.00,,,0.00,VWS V14.01,2013-03-30 16:57:00,
2013-03-30 10:02:00,71.8,21.7,29.99,NNE,33,2.0,2.0,15,0.00,,,0.00,VWS V14.01,2013-03-30 17:02:00,
2013-03-30 10:07:00,72.1,21.9,29.99,NNE,33,0.0,1.0,15,0.00,,,0.00,VWS V14.01,2013-03-30 17:07:00,
2013-03-30 10:12:00,72.5,22.3,29.99,NNE,33,2.0,3.0,15,0.00,,,0.00,VWS V14.01,2013-03-30 17:12:00,
2013-03-30 10:17:00,72.6,22.3,29.99,NNE,33,0.0,3.0,15,0.00,,,0.00,VWS V14.01,2013-03-30 17:17:00,
2013-03-30 10:22:00,72.6,22.3,29.98,NNE,33,0.0,1.0,15,0.00,,,0.00,VWS V14.01,2013-03-30 17:22:00,
2013-03-30 10:27:00,73.3,22.9,29.99,NNE,33,1.0,1.0,15,0.00,,,0.00,VWS V14.01,2013-03-30 17:27:00,
2013-03-30 10:32:00,73.5,23.1,29.98,NNE,33,1.0,2.0,15,0.00,,,0.00,VWS V14.01,2013-03-30 17:32:00,
2013-03-30 10:37:00,73.8,21.7,29.98,NNE,33,0.0,2.0,14,0.00,,,0.00,VWS V14.01,2013-03-30 17:37:00,
2013-03-30 10:42:00,73.6,21.5,29.98,NNE,33,1.0,2.0,14,0.00,,,0.00,VWS V14.01,2013-03-30 17:42:00,
2013-03-30 10:47:00,74.8,22.5,29.98,NNE,33,2.0,2.0,14,0.00,,,0.00,VWS V14.01,2013-03-30 17:47:00,
2013-03-30 10:52:00,75.3,21.1,29.98,NNE,33,1.0,1.0,13,0.00,,,0.00,VWS V14.01,2013-03-30 17:52:00,
2013-03-30 10:57:00,75.3,21.1,29.98,NNE,33,0.0,2.0,13,0.00,,,0.00,VWS V14.01,2013-03-30 17:57:00,
2013-03-30 11:02:00,75.0,20.9,29.98,NNE,33,0.0,2.0,13,0.00,,,0.00,VWS V14.01,2013-03-30 18:02:00,
2013-03-30 11:07:00,75.8,21.5,29.97,NNE,33,0.0,3.0,13,0.00,,,0.00,VWS V14.01,2013-03-30 18:07:00,
2013-03-30 11:12:00,76.0,19.8,29.97,NNE,33,2.0,3.0,12,0.00,,,0.00,VWS V14.01,2013-03-30 18:12:00,
2013-03-30 11:17:00,76.5,18.1,29.97,NNE,33,1.0,3.0,11,0.00,,,0.00,VWS V14.01,2013-03-30 18:17:00,
2013-03-30 11:22:00,75.9,19.7,29.97,NNE,33,2.0,3.0,12,0.00,,,0.00,VWS V14.01,2013-03-30 18:22:00,
2013-03-30 11:27:00,76.2,19.9,29.97,NNE,33,2.0,2.0,12,0.00,,,0.00,VWS V14.01,2013-03-30 18:27:00,
2013-03-30 11:32:00,77.8,21.2,29.97,NE,35,0.0,4.0,12,0.00,,,0.00,VWS V14.01,2013-03-30 18:32:00,
2013-03-30 11:37:00,77.4,20.9,29.97,NE,34,3.0,3.0,12,0.00,,,0.00,VWS V14.01,2013-03-30 18:37:00,
2013-03-30 11:42:00,78.3,19.5,29.97,WNW,298,0.0,2.0,11,0.00,,,0.00,VWS V14.01,2013-03-30 18:42:00,
2013-03-30 11:47:00,78.5,17.5,29.97,WNW,294,0.0,5.0,10,0.00,,,0.00,VWS V14.01,2013-03-30 18:47:00,
2013-03-30 11:52:00,78.4,19.6,29.97,WNW,290,4.0,6.0,11,0.00,,,0.00,VWS V14.01,2013-03-30 18:52:00,
2013-03-30 11:57:00,78.0,21.3,29.97,West,277,3.0,7.0,12,0.00,,,0.00,VWS V14.01,2013-03-30 18:57:00,
2013-03-30 12:06:00,78.2,19.4,29.97,West,277,3.0,6.0,11,0.00,,,0.00,VWS V14.01,2013-03-30 19:06:00,
2013-03-30 12:11:00,77.8,19.1,29.97,West,277,2.0,3.0,11,0.00,,,0.00,VWS V14.01,2013-03-30 19:11:00,
2013-03-30 12:18:00,78.6,19.8,29.96,West,277,2.0,5.0,11,0.00,,,0.00,VWS V14.01,2013-03-30 19:18:00,
2013-03-30 12:23:00,79.5,18.2,29.96,West,269,1.0,8.0,10,0.00,,,0.00,VWS V14.01,2013-03-30 19:23:00,
2013-03-30 12:28:00,79.5,20.4,29.96,West,259,6.0,7.0,11,0.00,,,0.00,VWS V14.01,2013-03-30 19:28:00,
2013-03-30 12:33:00,79.3,18.1,29.96,West,259,0.0,3.0,10,0.00,,,0.00,VWS V14.01,2013-03-30 19:33:00,
2013-03-30 12:38:00,78.5,15.0,29.95,West,259,3.0,5.0,9,0.00,,,0.00,VWS V14.01,2013-03-30 19:38:00,
2013-03-30 12:43:00,78.8,17.7,29.96,West,259,4.0,5.0,10,0.00,,,0.00,VWS V14.01,2013-03-30 19:43:00,
2013-03-30 12:48:00,78.1,17.1,29.95,West,280,1.0,6.0,10,0.00,,,0.00,VWS V14.01,2013-03-30 19:48:00,
2013-03-30 12:53:00,78.5,17.5,29.95,West,272,5.0,6.0,10,0.00,,,0.00,VWS V14.01,2013-03-30 19:53:00,
2013-03-30 12:58:00,79.4,18.1,29.95,WSW,251,6.0,6.0,10,0.00,,,0.00,VWS V14.01,2013-03-30 19:58:00,
2013-03-30 13:03:00,79.6,18.3,29.95,WSW,249,3.0,4.0,10,0.00,,,0.00,VWS V14.01,2013-03-30 20:03:00,
2013-03-30 13:08:00,79.5,18.2,29.95,WSW,249,6.0,6.0,10,0.00,,,0.00,VWS V14.01,2013-03-30 20:08:00,
2013-03-30 13:13:00,80.2,18.8,29.95,WSW,244,4.0,5.0,10,0.00,,,0.00,VWS V14.01,2013-03-30 20:13:00,
2013-03-30 13:18:00,79.8,16.0,29.95,SW,234,3.0,8.0,9,0.00,,,0.00,VWS V14.01,2013-03-30 20:18:00,
2013-03-30 13:23:00,79.2,15.6,29.95,SW,234,2.0,6.0,9,0.00,,,0.00,VWS V14.01,2013-03-30 20:23:00,
2013-03-30 13:28:00,79.1,15.5,29.94,SW,234,1.0,4.0,9,0.00,,,0.00,VWS V14.01,2013-03-30 20:28:00,
2013-03-30 13:33:00,79.1,17.9,29.94,SW,234,0.0,5.0,10,0.00,,,0.00,VWS V14.01,2013-03-30 20:33:00,
2013-03-30 13:38:00,78.8,15.2,29.94,SW,234,4.0,5.0,9,0.00,,,0.00,VWS V14.01,2013-03-30 20:38:00,
2013-03-30 13:43:00,78.2,17.2,29.94,SW,234,3.0,3.0,10,0.00,,,0.00,VWS V14.01,2013-03-30 20:43:00,
2013-03-30 13:48:00,78.2,14.8,29.94,SW,233,1.0,3.0,9,0.00,,,0.00,VWS V14.01,2013-03-30 20:48:00,
2013-03-30 13:53:00,78.2,14.8,29.94,SW,233,7.0,7.0,9,0.00,,,0.00,VWS V14.01,2013-03-30 20:53:00,
2013-03-30 13:58:00,78.3,14.9,29.94,SW,219,4.0,9.0,9,0.00,,,0.00,VWS V14.01,2013-03-30 20:58:00,
2013-03-30 14:03:00,77.7,29.5,29.94,SSE,164,7.0,18.0,17,0.00,,,0.00,VWS V14.01,2013-03-30 21:03:00,
2013-03-30 14:08:00,76.8,27.2,29.94,SW,217,0.0,10.0,16,0.00,,,0.00,VWS V14.01,2013-03-30 21:08:00,
2013-03-30 14:13:00,76.8,28.7,29.94,West,259,2.0,4.0,17,0.00,,,0.00,VWS V14.01,2013-03-30 21:13:00,
2013-03-30 14:18:00,76.3,28.3,29.93,NNW,340,7.0,7.0,17,0.00,,,0.00,VWS V14.01,2013-03-30 21:18:00,
2013-03-30 14:23:00,76.8,28.7,29.93,NNW,332,9.0,9.0,17,0.00,,,0.00,VWS V14.01,2013-03-30 21:23:00,
2013-03-30 14:28:00,76.5,28.5,29.93,NNW,330,9.0,17.0,17,0.00,,,0.00,VWS V14.01,2013-03-30 21:28:00,
2013-03-30 14:33:00,76.4,29.8,29.93,NNW,344,6.0,11.0,18,0.00,,,0.00,VWS V14.01,2013-03-30 21:33:00,
2013-03-30 14:38:00,76.5,29.9,29.92,NNW,342,6.0,9.0,18,0.00,,,0.00,VWS V14.01,2013-03-30 21:38:00,
2013-03-30 14:43:00,76.9,28.8,29.92,NW,306,9.0,11.0,17,0.00,,,0.00,VWS V14.01,2013-03-30 21:43:00,
2013-03-30 14:48:00,76.8,28.7,29.92,North,5,7.0,18.0,17,0.00,,,0.00,VWS V14.01,2013-03-30 21:48:00,
2013-03-30 14:53:00,76.9,28.8,29.92,NW,321,9.0,10.0,17,0.00,,,0.00,VWS V14.01,2013-03-30 21:53:00,
2013-03-30 14:58:00,77.1,25.9,29.92,NW,304,5.0,10.0,15,0.00,,,0.00,VWS V14.01,2013-03-30 21:58:00,
2013-03-30 15:03:00,76.9,25.8,29.92,NW,321,6.0,12.0,15,0.00,,,0.00,VWS V14.01,2013-03-30 22:03:00,
2013-03-30 15:08:00,77.2,26.0,29.92,NW,317,9.0,12.0,15,0.00,,,0.00,VWS V14.01,2013-03-30 22:08:00,
2013-03-30 15:13:00,77.4,27.7,29.93,West,272,4.0,12.0,16,0.00,,,0.00,VWS V14.01,2013-03-30 22:13:00,
2013-03-30 15:18:00,76.9,27.3,29.92,NNW,328,8.0,8.0,16,0.00,,,0.00,VWS V14.01,2013-03-30 22:18:00,
2013-03-30 15:23:00,76.6,28.6,29.91,NW,309,2.0,3.0,17,0.00,,,0.00,VWS V14.01,2013-03-30 22:23:00,
2013-03-30 15:28:00,76.7,25.6,29.91,NNE,13,5.0,10.0,15,0.00,,,0.00,VWS V14.01,2013-03-30 22:28:00,
2013-03-30 15:33:00,76.8,27.2,29.91,NW,316,2.0,9.0,16,0.00,,,0.00,VWS V14.01,2013-03-30 22:33:00,
2013-03-30 15:38:00,77.0,27.4,29.91,West,267,3.0,6.0,16,0.00,,,0.00,VWS V14.01,2013-03-30 22:38:00,
2013-03-30 15:43:00,77.4,26.2,29.91,WNW,290,2.0,7.0,15,0.00,,,0.00,VWS V14.01,2013-03-30 22:43:00,
2013-03-30 15:48:00,76.4,25.4,29.91,WNW,290,0.0,0.0,15,0.00,,,0.00,VWS V14.01,2013-03-30 22:48:00,
2013-03-30 15:53:00,76.8,25.7,29.90,WNW,294,1.0,1.0,15,0.00,,,0.00,VWS V14.01,2013-03-30 22:53:00,
2013-03-30 15:58:00,76.9,27.3,29.90,North,355,2.0,7.0,16,0.00,,,0.00,VWS V14.01,2013-03-30 22:58:00,
2013-03-30 16:03:00,77.0,25.9,29.90,NNW,327,3.0,5.0,15,0.00,,,0.00,VWS V14.01,2013-03-30 23:03:00,
2013-03-30 16:08:00,76.9,27.3,29.89,NNE,13,3.0,5.0,16,0.00,,,0.00,VWS V14.01,2013-03-30 23:08:00,
2013-03-30 16:13:00,76.3,25.3,29.89,ENE,71,4.0,5.0,15,0.00,,,0.00,VWS V14.01,2013-03-30 23:13:00,
2013-03-30 16:18:00,76.1,25.1,29.89,ENE,71,0.0,3.0,15,0.00,,,0.00,VWS V14.01,2013-03-30 23:18:00,
2013-03-30 16:23:00,76.4,23.7,29.89,NE,56,0.0,4.0,14,0.00,,,0.00,VWS V14.01,2013-03-30 23:23:00,
2013-03-30 16:28:00,77.0,24.2,29.89,North,355,3.0,9.0,14,0.00,,,0.00,VWS V14.01,2013-03-30 23:28:00,
2013-03-30 16:33:00,78.0,25.0,29.89,ENE,65,2.0,5.0,14,0.00,,,0.00,VWS V14.01,2013-03-30 23:33:00,
2013-03-30 16:38:00,78.8,23.9,29.88,North,11,4.0,10.0,13,0.00,,,0.00,VWS V14.01,2013-03-30 23:38:00,
2013-03-30 16:43:00,79.2,24.2,29.88,NNW,348,3.0,6.0,13,0.00,,,0.00,VWS V14.01,2013-03-30 23:43:00,
2013-03-30 16:48:00,78.8,23.9,29.88,NNE,28,1.0,6.0,13,0.00,,,0.00,VWS V14.01,2013-03-30 23:48:00,
2013-03-30 16:53:00,78.5,23.6,29.88,NNW,342,3.0,9.0,13,0.00,,,0.00,VWS V14.01,2013-03-30 23:53:00,
2013-03-30 16:58:00,78.4,23.5,29.88,NNW,343,6.0,6.0,13,0.00,,,0.00,VWS V14.01,2013-03-30 23:58:00,
2013-03-30 17:03:00,78.3,23.5,29.88,NW,326,3.0,9.0,13,0.00,,,0.00,VWS V14.01,2013-03-31 00:03:00,
2013-03-30 17:08:00,78.0,23.2,29.88,NNW,330,5.0,9.0,13,0.00,,,0.00,VWS V14.01,2013-03-31 00:08:00,
2013-03-30 17:13:00,77.8,23.1,29.88,NW,311,1.0,9.0,13,0.00,,,0.00,VWS V14.01,2013-03-31 00:13:00,
2013-03-30 17:18:00,77.6,24.7,29.88,NW,321,3.0,4.0,14,0.00,,,0.00,VWS V14.01,2013-03-31 00:18:00,
2013-03-30 17:23:00,77.7,23.0,29.88,NNW,336,5.0,8.0,13,0.00,,,0.00,VWS V14.01,2013-03-31 00:23:00,
2013-03-30 17:28:00,77.6,24.7,29.88,North,360,6.0,7.0,14,0.00,,,0.00,VWS V14.01,2013-03-31 00:28:00,
2013-03-30 17:33:00,77.5,24.6,29.88,NNW,332,6.0,10.0,14,0.00,,,0.00,VWS V14.01,2013-03-31 00:33:00,
2013-03-30 17:38:00,77.4,24.5,29.88,North,5,5.0,8.0,14,0.00,,,0.00,VWS V14.01,2013-03-31 00:38:00,
2013-03-30 17:43:00,77.3,24.4,29.88,North,11,5.0,7.0,14,0.00,,,0.00,VWS V14.01,2013-03-31 00:43:00,
2013-03-30 17:48:00,76.9,24.1,29.88,NW,317,9.0,9.0,14,0.00,,,0.00,VWS V14.01,2013-03-31 00:48:00,
2013-03-30 17:54:00,75.8,27.9,29.88,NW,315,6.0,15.0,17,0.00,,,0.00,VWS V14.01,2013-03-31 00:54:00,
2013-03-30 17:59:00,74.7,28.4,29.88,North,351,9.0,13.0,18,0.00,,,0.00,VWS V14.01,2013-03-31 00:59:00,
2013-03-30 18:04:00,73.7,27.6,29.89,NNW,346,10.0,11.0,18,0.00,,,0.00,VWS V14.01,2013-03-31 01:04:00,
2013-03-30 18:09:00,73.2,28.5,29.89,NW,317,6.0,13.0,19,0.00,,,0.00,VWS V14.01,2013-03-31 01:09:00,
2013-03-30 18:14:00,72.8,28.2,29.89,North,355,7.0,11.0,19,0.00,,,0.00,VWS V14.01,2013-03-31 01:14:00,
2013-03-30 18:19:00,72.6,28.0,29.89,NNW,330,5.0,12.0,19,0.00,,,0.00,VWS V14.01,2013-03-31 01:19:00,
2013-03-30 18:24:00,72.4,29.1,29.89,NNW,338,6.0,11.0,20,0.00,,,0.00,VWS V14.01,2013-03-31 01:24:00,
2013-03-30 18:29:00,72.2,28.9,29.89,NNW,342,7.0,10.0,20,0.00,,,0.00,VWS V14.01,2013-03-31 01:29:00,
2013-03-30 18:34:00,72.1,28.9,29.89,North,355,6.0,9.0,20,0.00,,,0.00,VWS V14.01,2013-03-31 01:34:00,
2013-03-30 18:39:00,71.9,28.7,29.89,North,5,7.0,9.0,20,0.00,,,0.00,VWS V14.01,2013-03-31 01:39:00,
2013-03-30 18:44:00,71.7,28.5,29.90,NNW,340,4.0,7.0,20,0.00,,,0.00,VWS V14.01,2013-03-31 01:44:00,
2013-03-30 18:49:00,71.5,28.4,29.90,NNW,340,4.0,6.0,20,0.00,,,0.00,VWS V14.01,2013-03-31 01:49:00,
2013-03-30 18:54:00,71.3,28.2,29.90,NNW,337,3.0,7.0,20,0.00,,,0.00,VWS V14.01,2013-03-31 01:54:00,
2013-03-30 18:59:00,71.2,28.1,29.90,NNW,344,3.0,5.0,20,0.00,,,0.00,VWS V14.01,2013-03-31 01:59:00,
2013-03-30 19:04:00,71.0,28.0,29.90,NNW,340,4.0,5.0,20,0.00,,,0.00,VWS V14.01,2013-03-31 02:04:00,
2013-03-30 19:09:00,70.8,27.8,29.90,NNW,336,4.0,6.0,20,0.00,,,0.00,VWS V14.01,2013-03-31 02:09:00,
2013-03-30 19:14:00,70.7,28.9,29.90,NNW,345,4.0,5.0,21,0.00,,,0.00,VWS V14.01,2013-03-31 02:14:00,
2013-03-30 19:19:00,70.6,28.8,29.90,NNW,338,4.0,7.0,21,0.00,,,0.00,VWS V14.01,2013-03-31 02:19:00,
2013-03-30 19:24:00,70.5,28.7,29.90,NNW,336,3.0,6.0,21,0.00,,,0.00,VWS V14.01,2013-03-31 02:24:00,
2013-03-30 19:29:00,70.4,28.6,29.90,North,349,2.0,6.0,21,0.00,,,0.00,VWS V14.01,2013-03-31 02:29:00,
2013-03-30 19:34:00,70.4,28.6,29.90,NNW,329,4.0,6.0,21,0.00,,,0.00,VWS V14.01,2013-03-31 02:34:00,
2013-03-30 19:39:00,70.4,28.6,29.90,NNW,334,5.0,6.0,21,0.00,,,0.00,VWS V14.01,2013-03-31 02:39:00,
2013-03-30 19:44:00,70.3,28.5,29.91,NNW,341,2.0,5.0,21,0.00,,,0.00,VWS V14.01,2013-03-31 02:44:00,
2013-03-30 19:49:00,70.3,28.5,29.90,NNW,346,3.0,7.0,21,0.00,,,0.00,VWS V14.01,2013-03-31 02:49:00,
2013-03-30 19:54:00,70.2,28.5,29.91,NW,325,4.0,5.0,21,0.00,,,0.00,VWS V14.01,2013-03-31 02:54:00,
2013-03-30 19:59:00,69.9,28.2,29.91,NNW,333,4.0,5.0,21,0.00,,,0.00,VWS V14.01,2013-03-31 02:59:00,
2013-03-30 20:04:00,69.7,28.0,29.91,NNW,337,4.0,4.0,21,0.00,,,0.00,VWS V14.01,2013-03-31 03:04:00,
2013-03-30 20:09:00,69.3,28.9,29.91,NNW,342,3.0,5.0,22,0.00,,,0.00,VWS V14.01,2013-03-31 03:09:00,
2013-03-30 20:14:00,69.0,28.6,29.92,North,350,0.0,5.0,22,0.00,,,0.00,VWS V14.01,2013-03-31 03:14:00,
2013-03-30 20:19:00,68.6,28.3,29.92,North,350,1.0,3.0,22,0.00,,,0.00,VWS V14.01,2013-03-31 03:19:00,
2013-03-30 20:24:00,67.8,28.7,29.92,North,360,3.0,4.0,23,0.00,,,0.00,VWS V14.01,2013-03-31 03:24:00,
2013-03-30 20:29:00,67.0,29.0,29.92,North,10,1.0,4.0,24,0.00,,,0.00,VWS V14.01,2013-03-31 03:29:00,
2013-03-30 20:34:00,66.5,28.6,29.92,North,10,2.0,3.0,24,0.00,,,0.00,VWS V14.01,2013-03-31 03:34:00,
2013-03-30 20:39:00,66.0,29.2,29.93,North,10,1.0,4.0,25,0.00,,,0.00,VWS V14.01,2013-03-31 03:39:00,
2013-03-30 20:44:00,65.8,29.0,29.93,North,10,0.0,3.0,25,0.00,,,0.00,VWS V14.01,2013-03-31 03:44:00,
2013-03-30 20:49:00,65.6,28.9,29.93,North,10,2.0,3.0,25,0.00,,,0.00,VWS V14.01,2013-03-31 03:49:00,
2013-03-30 20:54:00,65.6,28.9,29.93,NNE,13,3.0,3.0,25,0.00,,,0.00,VWS V14.01,2013-03-31 03:54:00,
2013-03-30 20:59:00,65.4,28.7,29.93,NNE,13,1.0,3.0,25,0.00,,,0.00,VWS V14.01,2013-03-31 03:59:00,
2013-03-30 21:04:00,65.3,28.6,29.93,NNE,13,2.0,2.0,25,0.00,,,0.00,VWS V14.01,2013-03-31 04:04:00,
2013-03-30 21:06:00,65.3,28.6,29.93,NNE,13,1.0,2.0,25,0.00,,,0.00,VWS V14.01,2013-03-31 04:06:00,
2013-03-30 21:11:00,65.2,29.5,29.93,NNE,13,0.0,3.0,26,0.00,,,0.00,VWS V14.01,2013-03-31 04:11:00,
2013-03-30 21:14:00,65.1,29.4,29.93,NNE,13,0.0,1.0,26,0.00,,,0.00,VWS V14.01,2013-03-31 04:14:00,
2013-03-30 21:19:00,64.9,29.2,29.93,NNE,13,1.0,2.0,26,0.00,,,0.00,VWS V14.01,2013-03-31 04:19:00,
2013-03-30 21:24:00,64.5,28.9,29.93,NNE,13,0.0,2.0,26,0.00,,,0.00,VWS V14.01,2013-03-31 04:24:00,
2013-03-30 21:29:00,64.1,28.5,29.94,NNE,13,0.0,4.0,26,0.00,,,0.00,VWS V14.01,2013-03-31 04:29:00,
2013-03-30 21:34:00,63.7,28.2,29.93,NNE,13,2.0,3.0,26,0.00,,,0.00,VWS V14.01,2013-03-31 04:34:00,
2013-03-30 21:39:00,63.4,28.9,29.94,NNE,13,1.0,3.0,27,0.00,,,0.00,VWS V14.01,2013-03-31 04:39:00,
2013-03-30 21:44:00,63.1,28.6,29.94,NNE,13,0.0,4.0,27,0.00,,,0.00,VWS V14.01,2013-03-31 04:44:00,
2013-03-30 21:49:00,62.7,28.3,29.94,NNE,13,3.0,4.0,27,0.00,,,0.00,VWS V14.01,2013-03-31 04:49:00,
2013-03-30 21:54:00,62.3,27.9,29.94,NNE,13,1.0,2.0,27,0.00,,,0.00,VWS V14.01,2013-03-31 04:54:00,
2013-03-30 21:59:00,62.1,28.6,29.94,NNE,13,1.0,4.0,28,0.00,,,0.00,VWS V14.01,2013-03-31 04:59:00,
2013-03-30 22:04:00,61.8,28.4,29.94,NNE,13,1.0,3.0,28,0.00,,,0.00,VWS V14.01,2013-03-31 05:04:00,
2013-03-30 22:09:00,61.6,28.2,29.94,NNE,13,2.0,4.0,28,0.00,,,0.00,VWS V14.01,2013-03-31 05:09:00,
2013-03-30 22:14:00,61.5,28.1,29.94,NNE,13,1.0,3.0,28,0.00,,,0.00,VWS V14.01,2013-03-31 05:14:00,
2013-03-30 22:19:00,61.4,28.0,29.94,NNE,13,1.0,3.0,28,0.00,,,0.00,VWS V14.01,2013-03-31 05:19:00,
2013-03-30 22:24:00,61.5,28.1,29.94,NNE,13,1.0,3.0,28,0.00,,,0.00,VWS V14.01,2013-03-31 05:24:00,
2013-03-30 22:29:00,61.6,28.2,29.94,NNE,13,1.0,3.0,28,0.00,,,0.00,VWS V14.01,2013-03-31 05:29:00,
2013-03-30 22:34:00,61.7,28.3,29.94,NNE,13,3.0,4.0,28,0.00,,,0.00,VWS V14.01,2013-03-31 05:34:00,
2013-03-30 22:39:00,61.8,27.5,29.94,NNE,13,0.0,3.0,27,0.00,,,0.00,VWS V14.01,2013-03-31 05:39:00,
2013-03-30 22:44:00,61.8,27.5,29.94,NNE,13,0.0,2.0,27,0.00,,,0.00,VWS V14.01,2013-03-31 05:44:00,
2013-03-30 22:49:00,61.8,27.5,29.94,NNE,13,1.0,2.0,27,0.00,,,0.00,VWS V14.01,2013-03-31 05:49:00,
2013-03-30 22:54:00,61.7,27.4,29.94,NNE,13,2.0,2.0,27,0.00,,,0.00,VWS V14.01,2013-03-31 05:54:00,
2013-03-30 22:59:00,61.6,27.3,29.94,NNE,13,2.0,2.0,27,0.00,,,0.00,VWS V14.01,2013-03-31 05:59:00,
2013-03-30 23:04:00,61.5,27.2,29.93,NNE,13,0.0,3.0,27,0.00,,,0.00,VWS V14.01,2013-03-31 06:04:00,
2013-03-30 23:09:00,61.4,28.0,29.93,NNE,13,1.0,3.0,28,0.00,,,0.00,VWS V14.01,2013-03-31 06:09:00,
2013-03-30 23:14:00,61.3,27.9,29.93,NNE,13,1.0,3.0,28,0.00,,,0.00,VWS V14.01,2013-03-31 06:14:00,
2013-03-30 23:19:00,61.2,27.0,29.94,NNE,13,0.0,3.0,27,0.00,,,0.00,VWS V14.01,2013-03-31 06:19:00,
2013-03-30 23:24:00,61.0,27.7,29.94,NNE,13,0.0,1.0,28,0.00,,,0.00,VWS V14.01,2013-03-31 06:24:00,
2013-03-30 23:29:00,60.7,27.4,29.93,NNE,13,0.0,1.0,28,0.00,,,0.00,VWS V14.01,2013-03-31 06:29:00,
2013-03-30 23:34:00,60.5,27.3,29.93,NNE,13,0.0,2.0,28,0.00,,,0.00,VWS V14.01,2013-03-31 06:34:00,
2013-03-30 23:39:00,60.2,27.0,29.93,NNE,13,1.0,3.0,28,0.00,,,0.00,VWS V14.01,2013-03-31 06:39:00,
2013-03-30 23:44:00,59.8,27.5,29.93,NNE,13,0.0,2.0,29,0.00,,,0.00,VWS V14.01,2013-03-31 06:44:00,
2013-03-30 23:49:00,59.5,27.2,29.93,NNE,13,2.0,4.0,29,0.00,,,0.00,VWS V14.01,2013-03-31 06:49:00,
2013-03-30 23:54:00,59.3,27.1,29.93,NNE,13,2.0,2.0,29,0.00,,,0.00,VWS V14.01,2013-03-31 06:54:00,
2013-03-30 23:59:00,59.2,27.0,29.93,NNE,13,1.0,3.0,29,0.00,,,0.00,VWS V14.01,2013-03-31 06:59:00,